Location: Hylvaty SDH
(49.9612°N, 16.4057°E)
Time: 12:29:21
(UTC+01:00)

A-11 Canister half - Pass Details

Date: 03 October 2020
Orbit: 1526 x 1683 km, 47.3° (Epoch: 28 October)

Event Time Altitude Azimuth Distance (km) Brightness Sun altitude
Rises 23:12:43 0° 243° (WSW) 4,670 11.6 -40.6°
Reaches altitude 10° 23:15:45 10° 241° (WSW) 3,690 11.0 -40.9°
Enters shadow 23:16:04 11° 240° (WSW) 3,588 10.9 -40.9°
Maximum altitude 23:24:54 66° 162° (SSE) 1,658 - -41.5°
Drops below altitude 10° 23:34:15 10° 83° (E) 3,765 - -42.2°
Sets 23:37:23 0° 81° (E) 4,770 - -42.4°
